Regional Weather Roundup
Issued by NWS Northern Indiana

Home | Current Version | Previous Version | Text Only | Print | Product List | Glossary Off
Versions: 1 2 3 4 5 6 7 8 9 10 11 12 13 14 15 16 17 18 19 20 21 22 23 24 25 26 27 28 29 30 31 32 33 34 35 36 37 38 39 40 41 42 43 44 45 46 47 48 49 50

000
ASUS43 KIWX 220000
RWRIWX

KIWX WEATHER ROUNDUP
NATIONAL WEATHER SERVICE NORTHERN INDIANA
800 PM EDT MON JUL 21 2014

NOTE: "FAIR" INDICATES FEW OR NO CLOUDS BELOW 12,000 FEET WITH NO
SIGNIFICANT WEATHER AND/OR OBSTRUCTIONS TO VISIBILITY.

* THESE STATIONS ARE NOT UNDER NWS QUALITY CONTROL. THEY ALSO MAY NOT
  REPORT WEATHER SUCH AS PRECIPITATION OR FOG.

INZ001>027-220100-
NORTHERN INDIANA

CITY           SKY/WX    TMP DP  RH WIND       PRES   REMARKS
GARY*          MOSUNNY   82  63  51 S7        30.07S
VALPARAISO     SUNNY     81  64  56 S6        30.09S
6HR MIN TEMP:  80; 6HR MAX TEMP:  83;

SOUTH BEND     SUNNY     83  62  49 S7        30.09S
6HR MIN TEMP:  82; 6HR MAX TEMP:  85;

GOSHEN         SUNNY     83  62  49 CALM      30.09S
6HR MIN TEMP:  81; 6HR MAX TEMP:  87;

WARSAW*        MOSUNNY   81  63  54 CALM      30.09S
ANGOLA*        SUNNY     84  63  48 CALM      30.10F
FORT WAYNE     MOSUNNY   82  61  48 SE5       30.10S
6HR MIN TEMP:  82; 6HR MAX TEMP:  87;

PERU/GRISSOM   SUNNY     82  64  55 SE2       30.10R
6HR MIN TEMP:  81; 6HR MAX TEMP:  85;


$$
INZ028>050-220100-
CENTRAL INDIANA

CITY           SKY/WX    TMP DP  RH WIND       PRES   REMARKS
LAFAYETTE      SUNNY     80  65  59 CALM      30.08S
6HR MIN TEMP:  80; 6HR MAX TEMP:  83;

KOKOMO*        SUNNY     79  68  69 SE3       30.10R
6HR MIN TEMP:  79; 6HR MAX TEMP:  84;

MUNCIE*        SUNNY     79  61  53 SE5       30.10S
6HR MIN TEMP:  79; 6HR MAX TEMP:  84;

INDIANAPOLIS   MOSUNNY   82  62  50 SW6       30.09R
6HR MIN TEMP:  81; 6HR MAX TEMP:  85;


$$
MIZ043>046-050>051-056>058-064>065-071>073-077>080-220100-
SOUTHWEST LOWER MICHIGAN

CITY           SKY/WX    TMP DP  RH WIND       PRES   REMARKS
BATTLE CREEK   SUNNY     82  63  52 S6        30.10F
6HR MIN TEMP:  81; 6HR MAX TEMP:  84;

BENTON HARBOR  SUNNY     78  63  59 CALM      30.08S
6HR MIN TEMP:  78; 6HR MAX TEMP:  81;

COLDWATER*     SUNNY     82  63  52 CALM      30.10S
6HR MIN TEMP:  82; 6HR MAX TEMP:  85;

HILLSDALE*     SUNNY     80  65  58 CALM      30.11F
HOLLAND        SUNNY     80  65  59 S5        30.08F
6HR MIN TEMP:  80; 6HR MAX TEMP:  83;

GRAND RAPIDS   SUNNY     82  64  54 S6        30.08F
6HR MIN TEMP:  82; 6HR MAX TEMP:  86;

KALAMAZOO      SUNNY     82  63  52 S6        30.09S
6HR MIN TEMP:  81; 6HR MAX TEMP:  85;

STURGIS*       SUNNY     79  64  61 SW3       30.09F
THREE RIVERS*  FAIR      80  68  66 SW3       30.10S
6HR MIN TEMP:  80; 6HR MAX TEMP:  84;


$$
OHZ001>008-015>018-024>025-220100-
NORTHWEST OHIO

CITY           SKY/WX    TMP DP  RH WIND       PRES   REMARKS
DEFIANCE       SUNNY     84  58  40 S5        30.10R
6HR MIN TEMP:  83; 6HR MAX TEMP:  88;

FINDLAY        CLEAR     83  65  54 W3        30.09S
6HR MIN TEMP:  83; 6HR MAX TEMP:  87;

TOLEDO EXPRESS MOSUNNY   81  63  54 E6        30.10R
6HR MIN TEMP:  81; 6HR MAX TEMP:  87;

TOLEDO METCALF CLEAR     80  60  50 E6        30.11R
6HR MIN TEMP:  80; 6HR MAX TEMP:  86;

LIMA           CLEAR     83  62  49 SW3       30.11S
6HR MIN TEMP:  82; 6HR MAX TEMP:  87;


$$
&&


USA.gov is the U.S. government's official web portal to all federal, state and local government web resources and services.